| time (UTC) | temp C | wind direction | speed KPH | gust KPH | rain 1hr cm | rain 24hr cm | rain mn cm | humidity % | barometer mb |
| 20260504231424 | 13 | 270 | 0.0 | 0.0 | 0.00 | 0.05 | 0.05 | 59 | 1006.7 |
| 20260504230524 | 13 | 225 | 0.0 | 0.0 | 0.00 | 0.05 | 0.05 | 58 | 1006.6 |
| 20260504225623 | 14 | 202 | 0.0 | 0.0 | 0.00 | 0.05 | 0.05 | 57 | 1006.5 |
| 20260504223623 | 15 | 292 | 3.2 | 4.8 | 0.00 | 0.05 | 0.05 | 56 | 1006.2 |
| 20260504221625 | 14 | 315 | 1.6 | 6.4 | 0.00 | 0.05 | 0.05 | 56 | 1006.1 |
| 20260504220625 | 15 | 302 | 4.8 | 8.0 | 0.00 | 0.05 | 0.05 | 56 | 1006.2 |
| 20260504215624 | 15 | 318 | 3.2 | 6.4 | 0.00 | 0.05 | 0.05 | 56 | 1005.9 |
| 20260504215524 | 15 | 311 | 3.2 | 6.4 | 0.00 | 0.05 | 0.05 | 56 | 1005.9 |
| 20260504214524 | 15 | 315 | 4.8 | 8.0 | 0.00 | 0.05 | 0.05 | 56 | 1005.8 |
| 20260504214424 | 15 | 307 | 4.8 | 8.0 | 0.00 | 0.05 | 0.05 | 57 | 1005.8 |
| 20260504213427 | 15 | 315 | 1.6 | 3.2 | 0.00 | 0.05 | 0.05 | 57 | 1005.8 |
| 20260504212426 | 15 | 307 | 4.8 | 11.3 | 0.00 | 0.05 | 0.05 | 58 | 1005.9 |
| 20260504211425 | 15 | 315 | 1.6 | 3.2 | 0.00 | 0.05 | 0.05 | 58 | 1005.9 |
| 20260504205524 | 15 | 275 | 1.6 | 3.2 | 0.00 | 0.08 | 0.05 | 57 | 1005.7 |
| 20260504204523 | 15 | 358 | 0.0 | 1.6 | 0.00 | 0.08 | 0.05 | 58 | 1005.7 |
| 20260504203524 | 15 | 325 | 3.2 | 6.4 | 0.00 | 0.08 | 0.05 | 58 | 1005.9 |
| 20260504202526 | 15 | 287 | 3.2 | 6.4 | 0.00 | 0.08 | 0.05 | 57 | 1005.7 |
| 20260504201525 | 14 | 307 | 3.2 | 6.4 | 0.00 | 0.08 | 0.05 | 56 | 1005.8 |
| 20260504200525 | 13 | 332 | 3.2 | 4.8 | 0.00 | 0.08 | 0.05 | 55 | 1005.7 |
| 20260504195525 | 12 | 302 | 3.2 | 4.8 | 0.00 | 0.08 | 0.05 | 54 | 1005.7 |
| 20260504194525 | 12 | 276 | 1.6 | 3.2 | 0.00 | 0.08 | 0.05 | 52 | 1005.6 |
| 20260504193623 | 12 | 271 | 1.6 | 4.8 | 0.00 | 0.08 | 0.05 | 51 | 1005.8 |
| 20260504191625 | 11 | 273 | 0.0 | 3.2 | 0.05 | 0.08 | 0.05 | 45 | 1006.0 |
| 20260504190723 | 10 | 229 | 4.8 | 9.7 | 0.05 | 0.08 | 0.05 | 43 | 1005.8 |
| 20260504185725 | 10 | 233 | 3.2 | 8.0 | 0.05 | 0.10 | 0.05 | 44 | 1005.9 |
| 20260504184726 | 10 | 205 | 3.2 | 6.4 | 0.05 | 0.10 | 0.05 | 45 | 1006.1 |
| 20260504183725 | 10 | 240 | 3.2 | 6.4 | 0.05 | 0.13 | 0.05 | 48 | 1006.3 |
| 20260504182823 | 10 | 222 | 3.2 | 8.0 | 0.03 | 0.10 | 0.03 | 51 | 1006.6 |
| 20260504181923 | 11 | 252 | 3.2 | 9.7 | 0.03 | 0.10 | 0.00 | 55 | 1006.6 |
| 20260504175923 | 12 | 241 | 3.2 | 6.4 | 0.00 | 0.10 | 0.00 | 59 | 1006.4 |
| 20260504173926 | 12 | 220 | 6.4 | 12.9 | 0.00 | 0.13 | 0.00 | 60 | 1006.1 |
| 20260504172924 | 12 | 228 | 4.8 | 12.9 | 0.00 | 0.15 | 0.00 | 59 | 1006.1 |
| 20260504172022 | 12 | 250 | 3.2 | 6.4 | 0.00 | 0.18 | 0.00 | 58 | 1006.0 |
| 20260504171024 | 13 | 249 | 3.2 | 6.4 | 0.00 | 0.20 | 0.00 | 56 | 1005.8 |
| 20260504170123 | 13 | 207 | 4.8 | 11.3 | 0.00 | 0.23 | 0.00 | 56 | 1005.7 |
| 20260504141026 | 13 | 332 | 1.6 | 4.8 | 0.00 | 0.84 | 0.00 | 52 | 1007.2 |
| 20260504130123 | 10 | 249 | 1.6 | 3.2 | 0.00 | 1.07 | 0.00 | 56 | 1007.8 |
| 20260504120223 | 7 | 337 | 0.0 | 0.0 | 0.00 | 1.24 | 0.00 | 62 | 1008.0 |
| 20260504110326 | 3 | 321 | 1.6 | 4.8 | 0.00 | 1.45 | 0.00 | 63 | 1007.7 |
| 20260504100323 | 1 | 292 | 1.6 | 3.2 | 0.00 | 1.70 | 0.00 | 56 | 1006.6 |
| 20260504081322 | 2 | 315 | 1.6 | 4.8 | 0.00 | 1.91 | 0.00 | 64 | 1006.0 |
| 20260504080324 | 2 | 292 | 1.6 | 4.8 | 0.00 | 1.96 | 0.00 | 63 | 1006.0 |
| 20260504045821 | 3 | 324 | 4.8 | 8.0 | 0.00 | 2.21 | 0.00 | 65 | 1004.8 |
| 20260504044823 | 3 | 320 | 3.2 | 6.4 | 0.00 | 2.21 | 0.00 | 65 | 1004.8 |
| 20260504043823 | 3 | 310 | 4.8 | 6.4 | 0.00 | 2.21 | 0.00 | 65 | 1004.9 |
| 20260504042823 | 3 | 329 | 4.8 | 8.0 | 0.00 | 2.21 | 0.00 | 65 | 1004.7 |
| 20260504041824 | 3 | 328 | 4.8 | 8.0 | 0.00 | 2.21 | 0.00 | 65 | 1004.8 |
| 20260504041724 | 3 | 305 | 4.8 | 9.7 | 0.00 | 2.21 | 0.00 | 65 | 1004.8 |
| 20260504040724 | 3 | 331 | 6.4 | 8.0 | 0.00 | 2.21 | 0.00 | 65 | 1004.7 |
| 20260504035742 | 3 | 318 | 4.8 | 8.0 | 0.00 | 2.21 | 2.21 | 64 | 1004.7 |
| 20260504034743 | 3 | 319 | 4.8 | 6.4 | 0.00 | 2.21 | 2.21 | 64 | 1004.6 |
| 20260504032744 | 4 | 331 | 6.4 | 9.7 | 0.00 | 2.21 | 2.21 | 64 | 1004.4 |
| 20260504031843 | 4 | 327 | 8.0 | 14.5 | 0.00 | 2.21 | 2.21 | 64 | 1004.3 |
| 20260504030843 | 4 | 322 | 8.0 | 11.3 | 0.00 | 2.21 | 2.21 | 64 | 1004.1 |
| 20260504025842 | 4 | 327 | 8.0 | 12.9 | 0.00 | 2.21 | 2.21 | 64 | 1004.1 |
| 20260504023842 | 4 | 325 | 6.4 | 11.3 | 0.00 | 2.21 | 2.21 | 64 | 1003.9 |
| 20260504022942 | 4 | 321 | 8.0 | 12.9 | 0.00 | 2.21 | 2.21 | 64 | 1003.9 |
| 20260504021944 | 4 | 323 | 4.8 | 8.0 | 0.00 | 2.21 | 2.21 | 63 | 1003.9 |
| 20260504020944 | 4 | 303 | 4.8 | 9.7 | 0.00 | 2.21 | 2.21 | 62 | 1004.0 |
| 20260504020041 | 4 | 326 | 6.4 | 9.7 | 0.00 | 2.21 | 2.21 | 63 | 1003.9 |
| 20260504014045 | 5 | 326 | 6.4 | 9.7 | 0.00 | 2.21 | 2.21 | 63 | 1003.7 |
| 20260504013043 | 5 | 302 | 8.0 | 14.5 | 0.00 | 2.21 | 2.21 | 63 | 1003.5 |
| 20260504012043 | 5 | 319 | 8.0 | 12.9 | 0.00 | 2.21 | 2.21 | 60 | 1003.4 |
| 20260504011043 | 5 | 325 | 4.8 | 6.4 | 0.00 | 2.21 | 2.21 | 57 | 1003.3 |
| 20260504010044 | 5 | 320 | 6.4 | 11.3 | 0.00 | 2.21 | 2.21 | 53 | 1003.2 |
| 20260504005043 | 5 | 330 | 6.4 | 11.3 | 0.00 | 2.21 | 2.21 | 46 | 1003.0 |
| 20260504004043 | 5 | 325 | 6.4 | 9.7 | 0.00 | 2.21 | 2.21 | 40 | 1002.8 |
| 20260504003043 | 5 | 317 | 1.6 | 3.2 | 0.00 | 2.21 | 2.21 | 41 | 1002.6 |
| 20260504002142 | 5 | 337 | 3.2 | 3.2 | 0.00 | 2.21 | 2.21 | 42 | 1002.6 |
| 20260504000044 | 5 | 341 | 4.8 | 8.0 | 0.00 | 2.21 | 2.21 | 42 | 1002.4 |
| 20260503235942 | 5 | 335 | 4.8 | 6.4 | 0.00 | 2.21 | 2.21 | 42 | 1002.5 |
| 20260503234943 | 5 | 329 | 4.8 | 4.8 | 0.00 | 2.21 | 2.21 | 41 | 1002.4 |
| 20260503233943 | 5 | 335 | 3.2 | 6.4 | 0.00 | 2.21 | 2.21 | 40 | 1002.2 |
| 20260503232943 | 5 | 337 | 3.2 | 4.8 | 0.00 | 2.21 | 2.21 | 40 | 1002.0 |
| 20260503231943 | 5 | 328 | 3.2 | 6.4 | 0.00 | 2.21 | 2.21 | 40 | 1001.9 |